Helicity
24 26 13 34 53 46 -4 20 29 67 56 27 86 81 71 65 46 9 33 52 61 61 35 39 68 74 78 84 84 73 62 39 36 31 31 33 28 31 29 16 16 22 26 31 39 46 59 78 73
37 35 54 53 35 1 28 34 39 53 19 214 222 114 144 88 54 97 131 45 58 74 39 39 62 66 74 78 75 62 63 36 26 27 25 35 33 36 32 22 19 20 22 30 49 60 70 67 62
43 60 65 54 10 3 32 40 68 63 187 267 216 176 124 68 111 136 68 70 36 38 30 47 62 62 66 65 56 48 42 28 22 22 20 20 21 28 28 21 23 28 39 47 51 56 61 59 55
79 98 108 74 33 27 51 53 80 62 159 225 271 193 102 78 188 66 87 68 40 31 37 54 64 55 50 45 39 35 28 21 19 18 13 14 15 21 22 21 23 28 31 37 47 55 70 67 59
129 130 114 68 -20 27 26 55 41 30 58 90 216 139 215 127 127 161 108 62 61 56 41 59 55 46 42 34 30 27 29 24 19 16 17 12 19 24 28 27 29 27 28 34 43 50 49 53 66
171 168 172 99 -13 -4 17 -75 21 44 77 145 190 304 203 139 209 135 101 87 72 112 79 64 57 49 46 34 23 18 19 26 24 26 25 26 23 25 28 25 26 28 28 34 45 45 43 47 77
147 172 163 122 55 -2 32 35 71 48 122 123 241 308 165 169 202 142 98 106 99 86 107 89 67 48 49 53 41 34 28 34 39 38 33 30 25 23 24 26 28 27 24 31 40 37 48 59 79
142 156 147 87 18 24 32 52 54 95 150 243 245 151 158 95 208 174 108 103 113 82 95 84 60 45 44 60 70 60 49 42 38 42 39 32 26 23 25 28 27 23 27 38 41 51 78 93 106
228 213 174 81 68 82 67 115 79 162 178 215 190 151 160 220 276 256 175 143 127 113 86 72 56 57 55 74 84 72 55 34 21 25 27 33 21 13 11 16 23 27 23 41 50 86 88 102 120
238 200 90 69 78 38 65 50 122 131 181 224 291 321 332 300 279 275 198 155 147 138 94 66 76 73 81 93 94 85 77 62 34 19 3 18 22 21 15 25 30 14 12 44 74 121 121 104 92
265 189 93 8 6 -2 -2 -0 142 95 208 256 281 281 347 289 243 262 168 121 125 133 140 96 81 85 99 108 99 88 81 71 63 65 51 41 49 37 36 28 43 43 54 83 96 121 114 114 102
242 156 88 -35 -46 -16 19 40 115 162 145 155 44 277 279 182 210 214 155 135 109 135 128 112 101 103 98 91 91 83 80 64 60 51 58 48 56 78 88 79 75 98 101 133 137 131 128 133 123
199 193 75 19 -11 -43 10 63 52 111 207 308 289 237 159 155 121 149 169 173 128 161 144 104 95 77 78 93 99 95 80 66 62 76 74 63 79 94 99 104 109 111 110 152 191 180 143 144 132
104 59 70 63 15 -10 62 48 134 94 147 165 102 100 150 138 193 170 189 195 157 143 127 105 98 85 97 107 110 101 101 83 85 93 91 92 96 105 108 100 116 130 125 144 161 161 144 95 70
85 81 20 -17 1 20 95 136 142 83 107 234 121 -16 46 121 84 244 209 212 161 138 143 143 152 165 169 148 147 118 110 103 102 96 100 118 113 103 94 99 108 104 117 143 166 160 124 72 53
113 80 57 11 45 62 81 114 143 76 134 106 97 102 138 117 1 177 213 178 171 184 190 179 159 154 180 181 167 145 113 89 78 76 86 90 85 77 93 92 88 91 116 174 174 136 106 78 68
219 135 96 24 78 126 114 151 122 120 111 54 30 132 190 73 34 122 163 156 177 165 165 151 159 197 222 208 197 154 113 92 82 79 76 81 78 76 84 80 86 91 128 154 129 89 81 81 94
222 183 113 52 104 191 197 149 167 106 74 57 84 103 65 56 40 121 161 137 178 153 153 166 211 239 247 247 220 179 136 86 76 82 77 76 78 61 72 61 84 92 142 121 125 118 103 78 84
191 155 85 84 131 193 136 200 154 106 130 89 50 47 95 85 90 123 187 152 167 141 159 186 241 217 248 225 178 150 111 98 107 101 74 44 24 23 5 34 55 65 111 98 103 112 142 137 120
180 162 84 35 90 142 158 201 180 170 57 9 76 94 106 170 183 132 202 166 115 129 159 176 194 195 192 193 168 106 114 119 112 110 112 59 51 40 40 21 27 14 84 115 105 111 157 186 105
121 112 120 85 69 194 242 233 196 86 114 41 67 108 117 155 118 153 193 180 158 151 154 151 179 152 145 177 175 179 190 168 133 133 126 89 83 92 78 41 27 97 110 148 108 108 151 196 167
88 85 100 123 161 242 184 301 145 110 105 95 69 114 77 68 107 165 217 212 183 145 142 147 160 148 145 151 157 140 133 140 97 54 48 76 120 155 129 127 123 165 151 153 149 126 154 183 205
93 75 83 119 115 134 156 225 214 82 118 158 77 70 87 110 121 194 218 231 181 137 143 129 161 166 137 137 133 127 142 75 53 51 68 94 110 110 106 109 124 148 170 161 130 141 151 128 152
86 93 101 121 109 164 196 231 255 231 127 77 52 80 104 141 137 179 207 259 182 138 122 116 157 148 123 134 131 130 134 102 110 89 87 94 112 114 108 111 116 119 119 140 149 148 147 119 137
106 122 167 168 154 37 146 236 215 171 117 108 121 87 145 200 211 250 245 247 206 161 112 113 128 129 118 123 120 117 126 117 109 84 87 104 97 110 111 108 115 105 117 130 122 128 118 114 125
138 139 207 268 174 62 110 171 218 101 112 106 158 178 225 251 284 280 279 267 221 169 130 120 129 120 132 125 105 113 136 118 94 88 99 97 101 101 94 113 113 111 114 114 115 104 99 89 88
150 142 156 182 161 102 121 189 193 111 91 118 121 208 197 183 219 227 266 240 235 169 149 143 159 129 147 130 134 130 159 134 102 98 103 102 111 109 104 117 113 102 100 91 86 82 71 83 73
100 126 208 279 129 127 179 142 182 198 108 131 129 173 189 189 158 184 208 212 180 137 126 135 155 169 181 164 149 139 141 149 140 130 115 104 114 120 120 113 103 92 85 76 80 74 59 77 63
178 216 178 203 160 138 132 144 153 122 102 133 124 136 186 155 135 169 164 148 138 132 140 152 153 185 192 198 164 168 166 166 171 141 112 106 119 116 116 104 87 75 76 72 80 64 59 72 67
93 195 180 255 253 154 154 142 160 121 107 143 175 154 142 147 160 206 193 157 139 139 141 152 165 188 190 193 169 167 182 183 175 140 118 122 115 101 110 100 77 71 75 67 69 64 48 53 55
Wind_Speed
55 56 49 46 48 41 48 47 45 42 29 21 15 1 3 23 22 32 27 34 41 43 38 36 37 37 34 33 33 35 37 39 41 40 37 37 40 41 41 41 38 31 23 16 12 19 20 23 23
49 48 42 41 49 53 55 49 55 48 22 4 3 6 17 20 29 21 25 38 40 41 37 36 37 37 35 34 33 34 35 37 39 39 37 34 35 36 36 36 33 29 25 20 15 19 24 27 27
46 42 45 46 48 51 46 42 32 7 5 4 9 15 19 24 20 22 33 42 37 36 37 37 38 36 35 35 35 34 34 34 36 37 36 34 31 31 32 31 29 26 22 21 22 24 27 31 32
43 42 42 55 62 44 40 22 5 11 12 15 3 12 22 22 15 21 37 38 34 34 33 36 37 36 37 38 36 34 34 33 33 34 34 34 31 28 27 27 26 25 25 25 27 30 33 36 37
41 40 54 64 63 49 42 23 28 19 22 7 11 17 16 13 18 27 33 34 32 29 27 31 33 34 34 37 37 35 34 33 32 31 32 32 30 26 23 23 22 23 25 27 30 32 35 38 40
52 44 58 79 72 42 47 52 48 44 24 20 17 13 21 10 20 24 26 29 30 28 25 24 26 27 27 29 35 36 34 32 31 29 29 29 28 27 25 23 22 23 25 28 30 33 35 37 39
60 57 69 78 86 56 49 43 53 53 32 31 12 26 16 2 16 19 21 24 28 27 23 21 21 21 23 23 27 31 30 29 28 28 28 27 27 26 25 23 23 23 25 28 30 31 34 36 39
58 62 75 76 80 74 44 41 55 41 39 19 15 26 15 10 15 14 15 19 21 22 19 20 19 20 20 21 23 22 25 28 27 27 26 25 24 23 23 22 23 23 25 27 29 31 35 37 39
50 74 85 80 69 57 35 41 39 32 23 35 34 27 10 15 16 13 10 10 10 13 16 14 16 18 20 19 18 20 22 23 23 24 23 22 22 22 22 22 22 23 25 28 30 33 35 37 39
65 80 86 73 71 54 45 42 43 37 25 40 32 11 13 18 18 16 11 12 10 10 12 16 16 16 16 14 15 18 21 21 21 20 19 19 18 19 20 20 22 22 24 26 29 31 32 34 36
72 87 85 91 71 64 61 55 46 37 44 38 19 9 14 22 19 18 12 11 11 9 9 12 15 12 9 11 13 17 19 21 21 21 20 18 18 18 19 21 23 24 23 24 27 28 30 32 35
82 87 86 95 76 63 52 39 44 47 38 14 8 5 2 21 19 17 17 12 11 10 7 8 11 12 11 11 13 14 15 18 19 20 19 19 19 19 19 20 24 25 23 23 24 27 29 33 35
86 78 95 98 78 67 55 55 47 34 9 13 20 6 7 26 18 14 14 12 13 12 8 6 10 9 11 11 11 12 14 17 18 18 20 20 18 18 19 21 23 25 24 21 22 25 27 31 34
65 92 92 83 78 74 65 52 46 37 22 16 11 8 14 23 21 16 20 17 14 12 9 6 8 8 7 8 10 11 14 18 21 23 21 19 19 19 20 24 26 26 23 21 21 22 25 30 33
71 77 90 110 82 72 53 63 61 37 34 19 13 9 14 18 15 34 20 19 19 12 8 7 7 6 7 7 10 13 18 21 24 24 23 20 21 23 24 26 27 26 22 18 20 22 25 29 32
68 78 95 85 83 74 62 81 56 38 33 37 38 14 15 8 31 23 21 20 13 12 8 5 3 5 6 8 11 14 18 23 25 25 24 24 24 23 24 26 28 24 20 15 17 20 24 28 30
69 81 96 86 73 70 70 72 51 44 41 35 25 19 15 11 15 19 19 20 19 14 11 8 4 3 5 8 10 15 19 22 25 26 26 25 25 25 24 25 24 21 18 15 17 19 22 24 28
75 77 72 89 73 68 68 70 48 43 38 31 27 18 17 21 21 20 20 19 18 14 10 7 3 3 5 7 9 15 20 23 24 25 25 25 25 26 25 24 23 19 16 14 15 17 22 22 25
66 69 79 66 59 61 65 59 46 44 37 30 24 21 21 22 18 18 20 20 17 14 12 10 7 3 7 9 8 12 16 21 23 24 24 24 25 26 27 24 21 20 16 14 14 15 17 21 21
78 75 75 69 58 58 56 58 47 43 39 38 32 26 24 22 23 26 23 22 19 16 15 12 7 8 7 9 9 12 14 22 22 21 23 26 26 28 25 24 23 19 18 18 14 15 17 17 20
91 88 71 58 52 51 48 56 59 53 47 42 40 38 33 29 31 27 28 24 21 26 21 17 16 14 11 9 10 11 17 18 22 21 24 26 26 26 26 24 24 23 21 20 18 14 12 11 24
97 79 74 67 59 69 57 70 68 54 49 43 41 36 28 30 28 26 24 23 25 21 17 20 22 21 16 10 10 12 12 14 17 20 23 26 27 27 25 25 23 24 23 23 23 20 16 11 13
81 64 74 74 68 59 74 68 74 64 64 50 43 41 34 35 32 30 27 23 21 20 19 20 18 17 19 13 15 13 12 16 17 19 20 22 25 25 25 24 24 26 26 26 26 26 24 19 16
70 55 70 62 63 84 75 74 70 72 61 54 45 36 36 36 34 31 27 23 24 22 21 19 16 12 13 7 8 7 8 11 14 15 17 19 21 22 24 24 25 26 27 28 29 30 29 28 27
72 72 71 80 76 99 77 74 70 70 64 44 38 42 40 38 38 34 35 33 34 35 31 24 20 17 13 7 6 5 4 7 10 11 13 16 17 20 21 23 24 26 27 28 30 32 32 32 32
80 73 80 85 83 96 61 89 77 53 57 55 42 44 42 40 37 38 36 37 36 41 39 34 28 23 17 12 10 4 2 5 7 9 10 13 15 16 18 20 23 25 26 27 29 29 30 31 32
67 82 71 63 67 74 74 72 55 58 58 59 57 46 38 38 38 36 32 35 34 39 44 42 32 25 22 18 11 7 3 6 6 6 8 10 12 14 15 17 19 21 22 24 24 26 28 29 31
67 65 76 70 85 89 78 81 78 63 64 60 54 45 40 38 35 30 28 29 28 34 33 33 32 30 25 20 15 10 8 6 5 4 6 8 9 11 13 15 16 18 19 22 22 24 25 27 30
65 67 66 66 65 81 79 86 63 62 61 57 49 41 37 37 38 32 28 26 26 26 29 30 29 26 24 20 17 12 10 8 7 8 8 8 8 10 10 12 13 15 16 18 19 21 22 26 28
63 64 61 77 74 65 70 64 47 53 60 54 49 42 34 34 38 33 29 25 23 27 26 30 27 24 22 20 19 15 11 11 10 10 10 9 8 8 9 10 11 12 13 14 15 17 20 23 26
Wind_Direction
285 285 289 287 275 276 270 277 284 290 305 310 106 7 322 340 2 341 76 91 105 108 105 104 101 96 88 81 76 73 69 70 73 71 63 63 67 67 65 64 58 49 32 14 357 9 2 2 353
287 287 290 283 269 265 269 281 273 274 309 55 32 360 307 329 323 26 71 103 104 105 103 102 99 95 90 83 77 73 70 70 72 73 67 61 61 63 59 58 51 45 36 20 349 352 359 1 351
286 285 276 270 266 262 277 285 289 317 16 263 297 316 320 317 348 80 90 108 104 100 102 101 99 95 89 85 81 75 70 68 69 71 71 66 60 58 57 53 47 37 22 8 3 357 0 4 358
280 277 276 262 255 267 271 291 328 309 313 290 32 321 329 345 76 77 107 105 102 99 98 100 98 95 93 91 86 79 74 69 67 67 68 69 62 54 51 48 43 36 25 16 10 7 7 10 7
274 275 262 259 255 263 261 270 276 279 298 277 289 310 334 354 56 99 109 107 105 97 93 94 95 93 91 91 89 84 78 72 67 65 64 63 60 50 41 36 30 26 24 20 19 16 15 15 19
259 266 259 249 249 267 258 265 272 274 292 267 286 307 316 81 96 110 110 107 107 102 95 87 87 85 83 83 89 86 79 74 69 63 60 58 55 51 42 33 27 22 20 21 19 20 20 24 26
252 255 254 249 245 259 265 274 265 271 261 268 267 291 302 138 119 117 115 110 109 103 98 89 82 77 77 73 75 78 72 68 63 62 60 56 52 48 41 31 21 16 16 17 20 22 27 32 31
255 254 251 249 249 255 271 275 276 263 254 258 261 284 270 187 139 129 120 114 112 106 99 95 89 81 72 66 62 54 60 66 64 64 58 51 45 39 30 21 16 7 11 17 20 30 40 40 39
253 248 246 244 249 248 265 283 286 275 240 267 270 283 234 168 148 152 148 131 130 111 106 99 91 82 78 64 48 49 50 55 58 58 55 49 40 34 22 18 5 7 7 15 29 49 47 44 42
245 245 245 245 244 248 259 287 282 270 249 273 274 267 173 172 172 171 175 161 190 144 117 105 96 85 75 52 43 40 36 32 31 34 49 42 32 19 6 350 343 357 8 24 38 44 41 36 36
245 245 243 238 245 252 262 277 284 270 261 270 251 199 167 178 178 173 179 167 177 169 133 111 99 84 52 51 45 50 38 32 20 20 12 14 3 349 336 346 355 357 6 29 32 32 34 34 34
248 247 244 238 247 254 263 275 281 275 269 264 237 127 211 199 212 197 163 186 206 192 162 126 107 95 84 58 50 43 26 23 15 11 5 356 346 336 340 353 355 354 5 21 24 26 29 29 30
247 250 244 242 251 254 262 266 274 280 271 187 155 151 168 136 212 186 176 195 210 196 191 155 121 100 90 70 49 33 25 15 7 8 357 350 354 341 341 346 346 348 4 22 24 24 25 27 29
254 246 243 244 246 249 253 259 266 265 239 222 247 304 152 148 154 185 210 197 201 176 185 169 141 110 85 45 44 21 6 356 349 346 354 354 344 341 335 337 341 345 355 9 16 23 26 28 34
251 249 243 232 241 246 247 252 256 249 245 222 247 276 220 139 152 152 199 197 163 168 171 151 139 110 83 48 25 357 346 345 338 342 349 351 339 329 328 328 335 341 353 15 22 24 27 29 33
245 245 239 237 237 241 242 245 250 237 232 246 262 250 153 234 145 150 170 167 177 160 165 144 123 96 64 30 3 359 353 346 342 347 344 343 337 334 335 332 329 347 1 30 32 33 28 30 38
242 241 236 238 238 240 239 245 244 232 240 246 239 234 151 184 169 158 169 168 156 153 147 143 120 68 20 354 1 351 356 358 341 340 344 341 342 341 343 344 345 350 19 42 43 35 32 36 39
238 237 240 235 238 236 239 246 233 226 231 233 231 197 176 167 178 164 165 165 161 153 155 143 112 45 6 9 355 351 345 347 346 352 350 348 349 343 346 343 2 358 9 26 34 33 24 36 37
242 242 239 242 239 235 238 243 225 223 229 221 189 209 218 206 205 198 198 166 164 163 158 152 129 80 81 73 34 356 348 339 344 352 355 1 354 347 337 346 343 355 7 8 359 18 21 13 29
238 240 240 241 237 240 239 238 224 217 210 193 189 215 217 218 181 162 180 169 173 171 163 159 150 123 91 82 37 22 28 322 333 357 7 2 2 4 2 5 359 350 353 8 357 351 349 357 8
234 235 236 238 234 245 234 236 230 232 236 237 242 245 234 201 176 180 167 178 175 163 163 154 142 131 109 74 40 13 348 341 330 337 339 349 353 350 354 4 4 3 5 11 356 358 5 28 355
232 235 237 237 236 235 233 234 233 225 235 232 233 232 209 208 192 193 187 199 174 176 172 156 144 137 121 93 83 83 16 11 347 346 346 347 343 341 345 353 4 15 19 25 16 9 4 26 36
236 236 236 236 241 240 234 241 236 231 236 233 231 231 215 214 207 202 202 201 186 182 177 166 153 143 137 123 117 97 40 11 16 353 347 354 5 18 17 14 15 21 26 25 29 31 24 30 42
235 237 235 238 241 239 234 237 238 226 229 232 233 224 214 211 193 215 219 201 183 187 182 181 174 163 153 148 125 97 56 36 27 24 18 7 3 9 19 23 28 32 37 39 40 40 43 46 39
232 227 229 230 235 234 234 238 243 232 233 217 208 189 192 192 192 198 189 183 181 180 181 187 186 176 171 179 160 128 41 50 69 53 39 36 31 19 18 28 33 39 39 41 46 50 48 45 45
228 225 226 226 228 232 236 237 242 239 236 236 206 192 191 198 197 192 196 188 187 184 184 184 183 179 179 182 170 167 58 68 68 50 43 50 40 34 28 36 38 39 43 45 46 49 45 44 43
229 229 229 237 239 239 239 243 250 243 237 235 236 232 218 212 198 193 204 192 194 188 186 184 185 184 182 180 181 174 148 117 102 55 44 45 43 42 45 37 35 32 34 41 43 44 45 41 41
235 227 225 234 231 234 239 239 242 239 237 235 234 226 215 208 217 219 206 202 207 190 192 194 189 184 183 183 182 179 163 148 119 94 90 78 60 57 54 47 39 37 40 49 47 45 42 42 43
228 229 230 233 239 235 238 240 244 239 238 234 233 228 218 208 208 205 204 213 214 197 201 201 194 189 187 190 182 178 172 159 142 136 121 108 83 86 68 58 50 48 49 48 44 42 40 43 42
234 230 229 226 230 239 243 247 249 245 242 237 235 234 221 204 194 202 210 215 199 189 197 198 200 197 196 190 179 176 177 162 154 147 138 129 117 103 91 78 67 55 49 45 43 38 43 45 38